User: anonymous   Login
Location: Unspecified
(0.0000°N, 0.0000°E)
Time: 05:49:41
(UTC+00:00)
Language:

STARLINK-35637 - Orbit

View from above orbital plane
View from above orbital plane
View from above satellite
View from above satellite

Ground track
Ground track

The orbit is defined by the following mean orbital elements,

1 66130U          26145.13319836 +.00000000 +00000-0 +60412-3 0 00007
2 66130  53.1590  44.6007 0001112 101.2517 258.8609 15.30199494    07
Epoch (UTC): 25 May 2026 03:11:48
Eccentricity: 0.0001112
inclination: 53.1590°
perigee height: 474 km
apogee height: 476 km
right ascension of ascending node: 44.6007°
argument of perigee: 101.2517°
revolutions per day: 15.30199494
mean anomaly at epoch: 258.8609°

The dashed part of the orbit path shows where the satellite is in the earth's shadow,  

DLR